星链-34440 (STARLINK-34440)

导读

STARLINK-34440是美国SpaceX星链星座的一员,于2025年6月25日发射升空。星链项目旨在构建全球卫星互联网星座,为全球偏远地区、海洋空域等提供低延迟高速网络服务,该卫星入轨后将参与星座组网,进一步拓展星链全球覆盖能力,增强卫星互联网服务的稳定性与带宽容量。

Basic Information
目录编号:
64614
目录名称:
STARLINK-34440
国际标识:
2025-137W
轨道中心:
EARTH
卫星名称:
星链-34440
卫星全名:
星链-34440 (STARLINK-34440)
卫星状态:
在轨 (已飞行437 天)
发射日期:
2025-06-25 UTC
国别 :
美国 (US)
星等 :
--
Orbit Information
数据来源 国际轨道数据 AOE轨道数据
星历时间 2026-09-05T11:53:11+0800
11小时前
查看轨道信息
2026-09-03T23:00:00+0800
2天前
查看轨道信息
半长轴 6840.909km 6840.81km
偏心率 0.0001655 0.0001333
轨道倾角 53.158° 53.154°
近地点辐角 99.633° 73.948°
升交点赤经 219.424° 226.610°
平近点角 260.486° 71.870°
近地点 461.639km 461.761km
远地点 463.905km 463.585km
周期 93.849分钟 93.847分钟
每日圈数 15.343771 15.344104
Detailed Information
固有亮度:
5
最大亮度:
2.5
卫星平台:
Starlink V1.0
覆盖范围:
全球
运营商:
太空探索技术公司
运营商所在国:
美国
制造商(研发单位):
太空探索技术公司
制造商所在国:
美国
使用方式:
暂无
Satellite Introduction
Starlink 计划是 SpaceX 推出的全球卫星互联网项目,通过发射低轨道卫星,为全球尤其是偏远地区提供高速、低延迟的互联网服务。自 2019 年起,Starlink 已部署数千颗卫星,旨在缩小全球数字鸿沟,推动互联网普及。该项目还为军事、航空等行业提供通信支持,带来广泛经济效益。
2D Orbit Map
3D Orbit Map
Orbit Altitude Analysis Chart
Orbit Inclination Analysis Chart
Orbit Comprehensive Analysis Chart
View Comprehensive Chart
Conjunction Data List
Event ID Objects TCA Miss Dist (km) Collision Risk Probability Collision Risk Index (CRI) Action
CDM_260907-201806-461406-503821
2026-09-07T
20:18:47+0000
0.627 km
远距离
5.323661E-5 中风险 0.7
CDM_260908-032006-461406-503821
2026-09-08T
03:20:49+0000
1.416 km
极远距离
3.583021E-6 低风险 0.46
CDM_260908-014706-461406-503821
2026-09-08T
01:47:02+0000
1.933 km
极远距离
1.471645E-6 低风险 0.38
CDM_260907-184406-461406-503821
2026-09-07T
18:44:59+0000
2.400 km
极远距离
9.353439E-7 极低风险 0.34